Preview of NWS' New Version of Forecast
This preview is not operational and should not be used for support decisions.

Regional Weather Roundup (RWR)

Issued by National Weather Service (NWS)

                            
000
ASPQ40 PGUM 210110
RWRPQ 
WEATHER ROUNDUP FOR THE MARIANAS AND MICRONESIA
NATIONAL WEATHER SERVICE TIYAN GU
1100 AM CHST THU FEB 21 2019

GUZ001>004-210200-
MARIANA ISLANDS-
  
CITY           SKY/WX    TMP DP  RH WIND       PRES   REMARKS
GUAM AIRPORT   PTSUNNY   84  75  74 NE21      29.94F HX  92           
ANDERSEN AFB   MOSUNNY   82  72  69 NE21      29.95F                  
ROTA AIRPORT   PTSUNNY   81  70  69 NE15      29.93F                  
TINIAN AP      PTSUNNY  N/A N/A N/A E18       29.94F                  
SAIPAN AP      RAIN      77  73  88 NE18      29.95F                  

$$

PMZ161-210200-
REPUBLIC OF PALAU-
  
CITY           SKY/WX    TMP DP  RH WIND       PRES   REMARKS
KOROR AP       PTSUNNY   82  73  74 N12G21    29.95F                  
KOROR WSO      NOT AVBL                                               

$$

PMZ171>174-210200-
FEDERATED STATES OF MICRONESIA-
  
CITY           SKY/WX    TMP DP  RH WIND       PRES   REMARKS
YAP AIRPORT    CLOUDY    86  77  74 NE14G24   29.92S HX  97           
CHUUK AP       CLOUDY    84  77  79 E18G35    29.64F HX  94           
POHNPEI AP     CLOUDY    86  75  70 E10       29.80F HX  95           
POHNPEI WSO    CLOUDY    88  77  70 E6        29.84F HX 100           
KOSRAE AP      NOT AVBL                                               

$$

PMZ181-210200-
REPUBLIC OF THE MARSHALL ISLANDS-
  
CITY           SKY/WX    TMP DP  RH WIND       PRES   REMARKS
KWAJALEIN AP   SUNNY     86  72  62 E17       29.87F HX  92           
MAJURO AP      NOT AVBL                                               
MAJURO WSO     MOSUNNY   84  72  65 E16       29.83F                  

$$